KAY51 EDDM-LFPB

Flight info

Callsign KAY51
Flight time N/A
Altitude 40000
Route GIVMI6S/26L GIVMI Y101 INBED DCT REKDI DCT LOHRE DCT BOMBI DCT RUDUS DCT BETEX DCT IDOSA DCT TOLVU/N0445F390 DCT RAPOR DCT RENSA
Aircraft A319/M-SDE3FGHIJ3J4J5M1P2RWXYZ/LB1D1

Departure

Time N/A
Airport Munich Airport (EDDM)

Arrival

Time 2026-05-03 20:24
Airport Paris-Le Bourget International Airport (LFPB)
Time Latitude Longitude Altitude Speed Heading
2026-05-03 20:15 49.04529 3.18529 3610 ft 247 kts 247°
2026-05-03 20:15 49.03907 3.16087 3374 ft 247 kts 247°
2026-05-03 20:15 49.03290 3.13651 3119 ft 246 kts 247°
2026-05-03 20:15 49.02674 3.11217 3008 ft 246 kts 247°
2026-05-03 20:16 49.02054 3.08786 3011 ft 247 kts 247°
2026-05-03 20:16 49.01429 3.06351 3019 ft 247 kts 248°
2026-05-03 20:16 49.00791 3.03923 3015 ft 247 kts 247°
2026-05-03 20:16 49.00152 3.01488 3013 ft 247 kts 247°
2026-05-03 20:17 48.99536 2.99044 3011 ft 247 kts 251°
2026-05-03 20:17 48.99198 2.96476 3008 ft 249 kts 262°
2026-05-03 20:17 48.99058 2.93857 3005 ft 242 kts 264°
2026-05-03 20:17 48.98949 2.91408 3007 ft 225 kts 264°
2026-05-03 20:18 48.98830 2.89012 3011 ft 228 kts 264°
2026-05-03 20:18 48.98710 2.86630 3011 ft 229 kts 264°
2026-05-03 20:18 48.98588 2.84218 3012 ft 228 kts 264°
2026-05-03 20:18 48.98465 2.81808 3011 ft 228 kts 263°
2026-05-03 20:19 48.98342 2.79400 3008 ft 228 kts 263°
2026-05-03 20:19 48.98218 2.76992 3007 ft 228 kts 264°
2026-05-03 20:19 48.98094 2.74584 3008 ft 228 kts 263°
2026-05-03 20:19 48.97971 2.72190 3007 ft 222 kts 263°
2026-05-03 20:20 48.97855 2.69948 3003 ft 203 kts 263°
2026-05-03 20:20 48.97749 2.67896 3004 ft 186 kts 263°
2026-05-03 20:20 48.97648 2.65971 2915 ft 180 kts 263°
2026-05-03 20:20 48.97549 2.64093 2690 ft 177 kts 263°
2026-05-03 20:21 48.97450 2.62230 2467 ft 176 kts 264°
2026-05-03 20:21 48.97352 2.60377 2229 ft 176 kts 264°
2026-05-03 20:21 48.97255 2.58544 1997 ft 167 kts 264°
2026-05-03 20:21 48.97170 2.56914 1797 ft 141 kts 263°
2026-05-03 20:22 48.97098 2.55556 1616 ft 122 kts 263°
2026-05-03 20:22 48.97032 2.54322 1458 ft 113 kts 263°
2026-05-03 20:22 48.96969 2.53146 1309 ft 110 kts 263°
2026-05-03 20:22 48.96904 2.51975 1148 ft 115 kts 262°
2026-05-03 20:23 48.96830 2.50694 992 ft 117 kts 263°
2026-05-03 20:23 48.96783 2.49479 849 ft 115 kts 263°
2026-05-03 20:23 48.96708 2.48243 697 ft 119 kts 262°
2026-05-03 20:23 48.96642 2.46981 560 ft 118 kts 263°
2026-05-03 20:24 48.96574 2.45783 376 ft 116 kts 265°
2026-05-03 20:24 48.96508 2.44542 212 ft 117 kts 263°
2026-05-03 20:24 48.96453 2.43511 170 ft 64 kts 265°
2026-05-03 20:24 48.96418 2.42952 170 ft 49 kts 264°
2026-05-03 20:25 48.96390 2.42503 162 ft 13 kts 264°
2026-05-03 20:25 48.96355 2.42484 162 ft 7 kts 185°
2026-05-03 20:25 48.96292 2.42502 162 ft 11 kts 160°
2026-05-03 20:25 48.96243 2.42586 162 ft 9 kts 126°
2026-05-03 20:26 48.96195 2.42678 159 ft 14 kts 129°
2026-05-03 20:26 48.96117 2.42824 154 ft 21 kts 130°
2026-05-03 20:26 48.96043 2.42965 153 ft 9 kts 127°
2026-05-03 20:26 48.95999 2.43053 155 ft 11 kts 127°
2026-05-03 20:27 48.95949 2.43155 157 ft 14 kts 118°
2026-05-03 20:27 48.95910 2.43290 161 ft 15 kts 112°
2026-05-03 20:27 48.95864 2.43444 163 ft 17 kts 114°
2026-05-03 20:27 48.95809 2.43626 157 ft 13 kts 115°
2026-05-03 20:28 48.95788 2.43681 157 ft 0 kts 128°
2026-05-03 20:28 48.95769 2.43689 157 ft 6 kts 178°
2026-05-03 20:28 48.95716 2.43648 156 ft 11 kts 208°
2026-05-03 20:28 48.95637 2.43594 156 ft 14 kts 201°
2026-05-03 20:29 48.95536 2.43526 156 ft 16 kts 206°
2026-05-03 20:29 48.95443 2.43461 156 ft 16 kts 206°
2026-05-03 20:29 48.95334 2.43383 155 ft 17 kts 206°
2026-05-03 20:29 48.95268 2.43335 155 ft 8 kts 206°
2026-05-03 20:30 48.95209 2.43324 154 ft 11 kts 140°
2026-05-03 20:30 48.95172 2.43446 156 ft 15 kts 115°
2026-05-03 20:30 48.95142 2.43542 153 ft 7 kts 115°
2026-05-03 20:30 48.95099 2.43584 152 ft 10 kts 181°
2026-05-03 20:31 48.95041 2.43544 154 ft 5 kts 208°
2026-05-03 20:31 48.95017 2.43524 155 ft 0 kts 208°
2026-05-03 20:32 48.95019 2.43526 154 ft 2 kts 203°
2026-05-03 20:32 48.95032 2.43529 154 ft 2 kts 135°
2026-05-03 20:33 48.95041 2.43512 153 ft 2 kts 114°
2026-05-03 20:33 48.95047 2.43489 153 ft 2 kts 114°
2026-05-03 20:33 48.95048 2.43486 153 ft 0 kts 117°
2026-05-03 20:33 48.95051 2.43479 153 ft 1 kts 117°
2026-05-03 20:34 48.95052 2.43476 153 ft 0 kts 115°